Retour au catalogue

WESTFORD NEEDLES

ActifPO
NORAD 3257·DEBRIS·🇺🇸 United States

Lancé May 9, 1963 depuis Vandenberg Space Force Base

Loading…

Prochains Passages (prochaines 24 heures)

TLE

FraisSource: Space-Track

Époque: Sep 14, 2026, 15:02 UTC

1  3257U 63014BX  26257.62688002  .00000488  00000-0  20066+0 0  9998
2  3257  87.3148 139.5162 0486079  69.2556 295.9684  8.65671235 67676

Suivez WESTFORD NEEDLES en temps réel avec AllMySat

Download on the App Store